RH
100 100 99 100 92 100 100 88 93 91 92 88 81 76 75 73 87 72 66 79 89 100 100 97 84 72 85 100 100 100 100 100 100
100 100 100 100 100 99 78 95 73 90 100 96 94 96 87 71 83 89 96 75 77 90 100 100 100 97 100 100 100 100 99 100 100
85 100 100 100 95 100 100 100 84 94 100 95 94 98 100 91 81 86 100 98 87 78 74 97 100 100 98 98 94 86 81 93 94
48 64 94 100 100 95 90 85 82 77 98 100 98 99 100 100 84 86 94 100 99 89 80 80 86 90 95 100 98 92 95 99 99
48 49 51 87 100 100 89 70 67 57 68 98 73 100 100 100 92 88 100 99 100 88 72 74 66 78 76 98 100 98 98 100 100
25 30 42 67 90 97 94 86 70 48 66 76 96 80 97 100 100 99 98 95 100 100 88 82 86 80 65 86 99 100 96 96 92
74 28 35 52 60 94 95 91 67 69 68 67 92 88 89 92 100 94 100 100 86 100 100 100 85 89 98 73 80 87 86 76 81
100 93 38 33 34 53 96 89 83 72 69 63 82 100 98 100 100 100 92 100 100 88 99 100 100 99 87 90 84 78 70 55 45
60 95 100 69 28 42 71 85 98 100 76 67 81 83 100 100 100 100 100 100 100 87 99 100 100 100 100 89 82 77 68 60 50
51 57 67 98 94 60 73 100 100 100 80 81 93 89 100 100 100 100 100 100 100 100 77 90 100 100 100 100 100 95 85 74 67
44 49 57 80 100 100 100 100 94 99 58 66 100 100 96 100 81 90 100 100 99 100 100 72 98 98 100 100 100 100 100 91 79
43 47 51 62 100 100 100 100 100 94 80 56 90 100 100 100 99 86 83 96 100 100 100 100 91 91 80 94 97 100 100 100 100
38 45 50 54 57 98 100 100 100 100 100 100 79 100 100 100 92 100 90 88 91 100 100 100 100 100 100 89 84 99 82 86 98
44 39 40 54 54 55 77 91 100 100 97 91 97 100 100 100 100 100 97 71 70 74 99 98 100 100 100 100 99 91 100 100 94
49 44 39 38 51 61 58 68 81 92 100 100 100 99 100 100 100 100 100 100 93 88 100 100 100 100 100 100 100 100 100 100 100
52 51 46 42 40 42 65 67 62 82 78 100 100 100 100 100 100 100 100 100 100 100 100 89 93 100 100 100 100 100 100 100 100
59 58 62 55 45 40 40 55 69 64 75 77 84 100 100 100 100 100 100 100 100 100 100 100 94 100 100 100 100 100 100 100 100
72 58 59 60 62 54 45 40 45 63 67 69 83 77 78 100 100 100 100 100 100 100 100 83 97 100 100 100 100 100 100 100 100
96 86 69 53 53 58 57 49 40 37 46 64 65 83 90 72 100 100 100 100 100 100 100 95 73 83 100 100 100 100 100 100 100
98 100 94 82 65 53 53 54 54 52 40 33 48 67 69 93 85 100 100 100 100 100 100 100 100 83 94 96 100 100 100 100 100
Wind_Speed
65 64 59 60 51 48 48 42 47 47 46 49 51 49 48 44 44 42 43 41 39 39 43 44 43 40 38 37 39 36 34 35 36
82 78 70 69 61 58 49 43 45 47 50 46 45 49 50 48 44 44 42 45 44 43 45 51 48 46 45 47 48 44 44 43 43
88 86 77 74 66 68 62 63 50 48 49 52 46 48 51 48 48 47 44 46 48 47 47 49 53 53 52 54 56 55 53 51 52
87 89 87 84 81 77 74 71 66 58 49 48 53 55 54 53 50 49 49 45 48 50 50 50 51 51 50 54 56 53 53 54 54
88 87 88 90 87 82 82 75 69 66 65 57 49 53 55 54 52 51 52 47 47 49 49 52 52 52 52 53 54 54 53 53 54
86 87 87 85 86 88 84 80 71 71 67 65 60 54 50 50 53 52 55 56 48 51 49 49 53 53 52 55 58 58 55 53 51
80 85 84 85 82 80 84 77 65 67 66 67 68 66 60 53 51 54 58 60 59 51 53 54 50 51 51 51 53 53 51 49 46
80 80 83 84 83 81 78 77 76 71 69 69 66 64 64 63 59 57 57 62 64 58 53 55 55 52 53 53 52 51 50 49 48
87 83 79 80 80 80 80 79 77 78 80 77 72 68 68 69 66 59 59 64 66 67 54 54 56 58 59 60 60 58 57 54 52
92 88 84 78 79 78 71 79 81 84 84 82 79 71 72 73 68 67 64 62 65 68 72 65 62 58 58 62 64 61 60 58 56
97 94 88 82 80 78 76 81 85 86 88 86 80 77 77 70 72 73 72 72 71 69 73 72 67 66 60 56 57 62 62 62 58
95 98 96 91 89 84 79 82 83 85 85 80 82 84 79 79 74 77 78 75 72 75 73 74 76 71 71 65 64 58 60 62 61
87 95 100 99 97 95 97 89 86 90 86 86 88 87 85 84 86 77 81 82 79 77 78 78 78 76 73 72 70 66 61 57 57
79 86 93 101 103 103 102 100 100 89 89 89 89 91 89 90 90 89 88 85 81 81 82 79 83 83 82 78 75 71 68 65 65
74 78 85 92 101 106 107 106 104 104 93 89 89 90 94 97 90 88 88 85 85 82 83 80 79 81 83 80 76 74 72 72 67
55 67 78 85 95 102 109 111 110 109 107 104 91 91 91 95 98 96 92 88 91 88 90 88 84 82 83 77 77 75 77 75 73
51 56 60 73 84 96 102 110 114 114 112 110 110 104 97 96 93 99 100 96 98 95 95 90 86 87 89 88 88 89 84 81 78
55 57 58 64 68 81 93 103 110 116 118 117 115 113 110 100 105 98 96 98 102 101 99 96 93 92 90 87 90 86 85 82 80
59 61 63 66 67 72 78 90 99 108 115 121 121 118 114 111 107 110 107 100 107 106 107 102 99 98 98 96 96 93 94 91 90
61 63 66 68 69 71 73 79 86 94 104 113 119 124 121 118 114 115 111 113 103 101 106 107 102 97 97 94 102 99 94 92 93
Wind_Direction
235 238 241 241 239 244 237 240 249 251 252 251 254 252 249 248 246 242 238 235 234 233 228 233 234 231 230 229 229 231 227 229 243
242 245 244 244 243 240 235 238 245 251 250 251 250 250 248 247 245 242 242 238 235 234 231 230 229 232 229 224 225 226 230 237 252
242 244 245 243 240 246 244 247 244 250 251 249 245 248 250 247 243 244 241 239 236 235 234 234 235 234 235 233 233 235 240 245 250
243 243 242 245 246 247 245 245 247 242 246 248 247 245 249 248 243 241 238 239 241 237 238 239 241 240 239 240 242 244 246 248 250
241 242 243 243 243 244 246 247 244 247 244 244 246 246 244 248 245 240 236 234 241 240 242 242 242 245 245 242 243 245 246 249 253
243 241 241 241 242 245 246 249 249 246 241 243 245 243 246 247 244 242 238 238 235 243 242 245 245 246 247 244 246 248 249 250 253
244 243 242 242 243 244 246 245 243 244 247 246 244 244 245 244 243 240 238 239 234 233 243 243 244 247 247 246 246 247 249 250 250
237 244 244 243 242 243 243 245 239 244 248 247 245 243 245 245 246 243 238 237 237 233 234 243 246 243 246 245 246 246 246 249 249
237 236 241 247 244 243 243 244 244 243 244 247 250 248 241 242 242 241 239 237 237 237 234 247 248 247 250 248 246 246 247 248 250
237 238 237 237 245 244 242 242 238 238 241 244 246 242 240 241 241 239 238 236 238 240 236 232 236 244 252 248 246 245 246 247 249
234 236 237 235 234 237 236 243 240 241 243 241 240 239 240 241 240 239 239 240 241 240 239 237 235 234 232 243 249 250 248 248 248
237 235 235 234 231 231 234 237 238 239 240 239 239 239 239 241 245 241 239 239 240 240 240 242 239 237 239 236 237 241 248 250 248
238 237 236 234 233 232 232 234 238 237 237 239 241 238 238 241 243 240 241 237 239 240 241 239 240 240 241 243 245 245 244 243 247
240 239 238 237 235 234 234 235 234 236 239 240 240 238 237 239 238 237 241 247 245 240 239 241 242 242 244 244 246 248 248 250 250
240 241 239 239 237 236 235 236 236 237 233 234 234 238 237 236 236 240 243 244 244 241 243 243 241 244 244 247 244 243 245 248 247
242 243 242 240 239 237 236 236 236 236 236 233 229 230 234 238 238 239 238 242 243 242 242 243 243 243 243 242 242 242 245 249 247
249 243 243 243 243 240 238 238 237 238 237 236 236 233 232 231 235 236 237 242 241 242 242 243 242 242 243 241 243 244 246 248 250
258 252 247 242 243 243 242 240 239 238 237 237 237 236 235 232 232 233 237 237 238 242 242 244 241 240 243 243 243 243 245 248 250
258 256 255 250 243 242 242 242 242 241 239 237 237 237 237 235 231 233 233 236 238 240 245 244 242 241 241 244 245 247 247 248 249
260 256 254 253 253 248 244 241 241 241 242 241 238 237 237 236 235 234 233 234 237 239 241 244 245 243 242 246 243 244 247 249 251